Location: Battersea Observatory
(44.4318°N, 76.3841°W)
Time: 23:02:43
(UTC-04:00)

Tiros 1 despin weight - Pass Details

Date: 27 January 2022
Orbit: 592 x 639 km, 48.2° (Epoch: 25 May)

Event Time Altitude Azimuth Distance (km) Brightness Sun altitude
Rises 18:21:23 0° 272° (W) 2,884 ? -13.2°
Reaches altitude 10° 18:23:44 10° 277° (W) 1,987 ? -13.6°
Maximum altitude 18:28:13 54° 355° (N) 767 ? -14.4°
Enters shadow 18:30:50 24° 64° (ENE) 1,320 ? -14.8°
Drops below altitude 10° 18:32:46 10° 73° (ENE) 2,017 - -15.2°
Sets 18:35:10 0° 78° (ENE) 2,932 - -15.6°
